Location: Fonju
(48.5858°N, 2.7779°E)
Time: 02:34:31
(UTC+00:00)

Daily predictions for brighter satellites

Satellite Brightness Start Highest point End
(mag) Time Altitude Azimuth Time Altitude Azimuth Time Altitude Azimuth
Cosmos 2228 Rocket 3.5 00:05:20 42° SE 00:06:21 52° E 00:10:43 10° NNE
Cosmos 2082 Rocket 2.8 00:07:01 34° SSE 00:08:45 43° ESE 00:14:08 10° NE
Meteor 1-12 Rocket 4.3 00:03:15 10° N 00:09:10 82° ENE 00:11:47 36° SSE
Helios 1A Rocket 4.2 00:07:43 24° ESE 00:09:15 32° ENE 00:12:44 10° N
Cosmos 1833 Rocket 2.9 00:08:10 30° SW 00:10:54 64° WNW 00:16:31 10° NNE
BREEZE-M DEB (TANK) 3.1 00:13:11 51° SSE 00:13:11 51° SSE 00:19:10 10° ESE
Cosmos 724 4.2 00:12:03 38° SSW 00:14:23 78° ESE 00:20:14 10° NE
Cosmos 1908 4.0 00:12:56 10° NNW 00:16:07 33° W 00:16:07 33° W
ATLAS CENTAUR R/B 4.4 00:10:27 10° NW 00:24:06 63° SW 00:31:03 22° SSE
Cosmos 1140 Rocket 3.9 00:22:28 31° SW 00:24:45 55° WNW 00:29:55 10° NNE
USA 267 3.2 00:18:44 10° NE 00:25:18 89° NNW 00:30:21 18° WSW
Cosmos 1707 4.1 00:26:20 24° W 00:27:00 25° WNW 00:30:05 10° NNW
Cosmos 1441 Rocket 3.8 00:23:46 10° NNW 00:27:04 39° W 00:27:04 39° W
Cosmos 1455 4.1 00:27:00 10° NNE 00:29:44 21° ENE 00:31:18 16° ESE
Cosmos 1869 Rocket 4.4 00:26:35 10° NNW 00:30:32 35° W 00:31:14 32° WSW
Cosmos 1733 Rocket 2.9 00:26:28 10° N 00:30:49 90° W 00:31:54 50° S
Resurs 1-4 Rocket 4.2 00:29:22 10° NE 00:32:38 16° E 00:35:53 10° SE
Cosmos 1400 Rocket 2.7 00:32:16 60° SSW 00:32:57 85° W 00:36:58 10° N
GP-B 3.6 00:29:43 10° N 00:33:58 47° W 00:35:02 39° WSW
H-2A R/B 3.1 00:33:18 10° N 00:37:26 39° WNW 00:39:00 29° WSW
Cosmos 381 Rocket 4.5 00:31:54 10° NNW 00:38:22 84° WSW 00:41:55 29° SSE
Cosmos 2278 4.5 00:35:12 10° NNW 00:40:47 51° NE 00:46:19 10° SE
NOSS 3-4 (A) 3.9 00:35:38 10° NW 00:42:25 60° SW 00:47:10 25° SSE
NOSS 3-4 (C) 3.9 00:35:45 10° NW 00:42:31 60° SW 00:47:19 24° SSE
Cosmos 1346 Rocket 2.7 00:40:31 10° N 00:44:25 82° E 00:45:17 52° SSE
Cosmos 676 Rocket 4.3 00:42:47 35° SSE 00:44:47 57° ESE 00:50:01 10° NNE
Cosmos 2251 Rocket 3.9 00:44:25 31° SW 00:46:45 57° WNW 00:51:58 10° NNE
Cosmos 407 Rocket 4.0 00:44:27 29° SW 00:46:53 53° WNW 00:52:03 10° NNE
Cosmos 468 Rocket 3.9 00:42:01 10° NNW 00:47:20 83° WSW 00:49:47 33° SSE
Cosmos 1954 Rocket 4.0 00:48:42 38° S 00:50:47 76° ESE 00:56:07 10° NNE
Okean 2 4.0 00:49:49 35° SE 00:50:58 46° E 00:54:47 10° NNE
Cosmos 2333 Rocket 4.3 00:48:26 10° NNW 00:53:16 27° NE 00:58:07 10° ESE
Cosmos 1190 Rocket 4.0 00:51:10 37° SSW 00:53:20 80° WNW 00:58:40 10° NNE
Meteor 1-4 Rocket 3.5 00:53:08 27° ESE 00:53:21 27° E 00:55:57 10° NNE
CZ-2C R/B 4.2 00:48:54 10° SE 00:53:22 31° ENE 00:57:53 10° N
Cosmos 1763 Rocket 3.8 00:51:33 10° NNW 00:56:39 49° WSW 00:58:19 36° SSW
Cosmos 2322 Rocket 3.6 00:53:09 10° NNW 00:58:23 37° NE 01:03:35 10° ESE
Nadezhda 2 Rocket 4.5 00:55:25 32° S 00:58:38 89° WNW 01:05:04 10° N
Cosmos 1300 3.3 00:55:58 10° NNW 00:59:15 36° W 00:59:22 36° W
Cosmos 1703 Rocket 4.3 00:58:54 28° SSE 01:00:47 45° E 01:05:03 10° NNE
USA 234 3.3 00:56:31 14° SSE 01:02:01 54° SW 01:08:26 10° WNW
SL-14 R/B 3.9 01:01:39 36° WSW 01:02:30 42° WNW 01:06:11 10° N
Cosmos 1953 2.4 00:59:58 10° N 01:03:52 68° ENE 01:05:20 36° SSE
SL-8 R/B 3.7 00:59:34 10° W 01:04:15 56° SSW 01:08:55 10° SE
Cosmos 1697 Rocket 4.1 01:00:52 10° NW 01:04:53 20° W 01:05:44 20° WSW
Cosmos 1862 Rocket 3.8 01:04:13 39° SW 01:05:31 55° WNW 01:09:48 10° N
Aureole 3 3.2 01:09:14 43° W 01:09:18 43° WNW 01:12:12 10° N
Cosmos 1980 Rocket 2.9 01:07:09 10° NW 01:12:19 36° WSW 01:14:01 30° SW
Nadezhda 1 Rocket 4.1 01:07:15 10° N 01:13:42 80° E 01:18:17 20° SSE
Cosmos 1242 Rocket 4.2 01:13:26 15° ESE 01:14:18 17° E 01:16:19 10° NE
Cosmos 540 Rocket 3.8 01:10:10 10° NNW 01:15:05 46° WSW 01:16:52 33° SSW
ADEOS II 3.7 01:15:38 10° NE 01:19:59 26° E 01:24:12 10° SSE
MOZ.5/SAFIR/RUBIN 5/SL-8 3.7 01:18:21 28° S 01:20:51 83° WSW 01:25:36 10° NNW
COSMOS 2406 3.4 01:19:32 28° SW 01:22:40 70° WNW 01:28:27 10° NNE
Cosmos 1408 4.4 01:21:25 14° ESE 01:22:48 18° E 01:24:54 10° NE
Cosmos 2369 4.3 01:18:11 10° NW 01:23:25 38° WSW 01:25:30 29° SSW
Cosmos 1356 Rocket 4.0 01:22:17 31° WSW 01:23:36 42° WNW 01:27:33 10° N
Lacrosse 5 rocket 1.2 01:20:24 10° NW 01:24:33 86° NE 01:28:30 10° SE
IDEFIX/ARIANE 42P 3.0 01:20:04 10° NNE 01:25:15 55° E 01:28:29 22° S
EXPRESS MD2 4.2 01:27:55 23° SE 01:27:55 23° SE 01:30:43 10° E
Okean 1-7 3.2 01:30:04 34° SW 01:31:45 59° WNW 01:36:02 10° N
Okean 3 4.4 01:34:53 25° WSW 01:36:20 33° WNW 01:40:04 10° N
Cosmos 1238 4.4 01:35:09 10° NNW 01:39:03 70° W 01:40:13 38° S
ATLAS 2AS CENTAUR R/B 3.9 01:33:00 10° NW 01:39:36 43° NE 01:45:55 10° ESE
Cosmos 1315 Rocket 2.7 01:39:37 34° SSW 01:41:11 74° WNW 01:45:07 10° N
SJ 16-02 2.7 01:39:50 15° SSE 01:42:38 30° ESE 01:46:25 10° NE
SL-16 R/B 2.1 01:37:20 10° NNW 01:43:02 79° WSW 01:48:42 10° SSE
Helios 1A Rocket 4.1 01:43:06 23° WSW 01:43:39 24° W 01:46:49 10° NW
CZ-2C R/B 4.1 01:38:04 10° NNE 01:43:42 48° E 01:48:26 14° S
Cosmos 1850 Rocket 4.1 01:46:14 24° SSW 01:49:29 78° ESE 01:54:46 10° NNE
Cosmos 2082 Rocket 3.2 01:48:50 16° WSW 01:52:54 38° NW 01:58:15 10° NNE
Cosmos 1709 Rocket 4.0 01:49:42 19° S 01:54:25 87° E 02:00:49 10° N
Cosmos 1741 Rocket 4.0 01:51:18 23° SSW 01:54:35 81° ESE 01:59:53 10° NNE
Cosmos 2219 Rocket 3.6 01:50:45 10° NNW 01:56:05 41° NE 02:01:24 10° ESE
SL-16 R/B 3.1 01:50:32 10° SE 01:56:40 61° ENE 02:02:50 10° N
Cosmos 1782 Rocket 3.5 01:52:31 10° NNW 01:56:53 66° W 01:59:39 21° S
Cosmos 1908 Rocket 4.4 01:53:29 10° NNW 01:57:32 35° W 01:59:24 24° SW
CZ-2D R/B 2.3 01:53:05 10° NNE 01:58:36 77° ESE 02:02:42 18° S
Cosmos 2237 4.4 01:57:13 10° NW 02:02:46 51° WSW 02:07:48 12° S
Cosmos 1703 4.1 02:00:01 15° SSE 02:02:52 43° E 02:06:26 10° NNE
Meteor 1-28 Rocket 3.8 02:00:12 10° SSE 02:03:40 52° ENE 02:07:09 10° N
Cosmos 1455 3.1 02:01:16 10° NNW 02:04:12 26° W 02:05:04 23° WSW
Cosmos 2360 Rocket 2.3 01:59:23 10° NNW 02:05:07 80° ENE 02:10:48 10° SSE
Cosmos 968 Rocket 3.6 02:02:10 20° S 02:05:43 73° ESE 02:10:52 10° NNE
CRYOSAT 2 4.4 02:01:46 10° N 02:06:42 80° E 02:10:48 15° S
Genesis I 3.6 02:05:37 23° S 02:07:25 43° ESE 02:10:49 10° NE
USA 267 4.1 02:01:48 10° ENE 02:08:01 48° NNW 02:14:14 10° W
Meteor 1-24 Rocket 4.5 02:02:49 10° S 02:08:39 55° E 02:14:30 10° NNE
RESURS DK-1 3.0 02:05:13 10° NNW 02:09:14 56° ENE 02:13:13 10° SE
DELTA 2 R/B (1) 4.3 02:06:58 18° WSW 02:10:10 31° S 02:15:00 10° SE
MSX 3.8 02:05:49 10° NNE 02:11:34 77° WNW 02:16:00 17° SSW
Resurs 1-4 Rocket 2.1 02:07:47 10° NNE 02:13:03 78° WNW 02:17:04 18° SSW
Cosmos 841 Rocket 4.3 02:08:37 10° NW 02:13:16 33° WSW 02:16:19 18° SSW
H-2A R/B 3.9 02:13:32 10° N 02:17:22 46° WNW 02:19:49 20° SW
FENGYUN 3A 3.7 02:17:05 10° NNE 02:22:30 78° ESE 02:27:27 12° S
Meteor 1-4 Rocket 4.2 02:25:17 13° W 02:26:25 15° WNW 02:28:13 10° NNW
SL-24 R/B 4.3 02:28:21 10° S 02:33:14 72° W 02:38:04 10° N
CZ-2C R/B 3.0 02:29:14 13° SSW 02:33:30 42° W 02:38:25 10° NNW
Cosmos 2242 Rocket 3.9 02:30:51 16° SSW 02:34:13 53° WNW 02:38:38 10° N
Timation 1 Rocket 4.5 02:32:20 15° SW 02:37:20 69° WNW 02:43:18 10° NNE
Cosmos 1825 3.7 02:34:39 10° SSE 02:37:39 29° E 02:40:40 10° NNE
Cosmos 2333 Rocket 2.2 02:32:21 10° NNW 02:38:02 67° WSW 02:43:43 10° SSE
Sich 1 Rocket 4.0 02:33:41 10° N 02:38:12 67° E 02:42:38 10° SSE
Cosmos 2098 Rocket 3.7 02:33:31 10° NNW 02:38:37 69° W 02:44:37 10° S
Cosmos 1953 4.4 02:37:54 10° WNW 02:39:07 11° W 02:40:19 10° W
Cosmos 2151 Rocket 3.8 02:36:14 10° N 02:40:45 77° E 02:45:10 10° SSE
Cosmos 1814 Rocket 4.2 02:36:45 10° NNW 02:41:48 51° WSW 02:46:52 10° S
SL-27 R/B 1.9 02:40:26 18° SSW 02:42:21 66° WNW 02:45:10 10° NNE
Cosmos 2292 4.3 02:39:22 10° NNW 02:42:28 70° W 02:46:08 10° S
Cosmos 2322 Rocket 2.5 02:37:10 10° NW 02:42:31 44° WSW 02:47:51 10° S
Cosmos 1892 3.7 02:40:25 10° SSE 02:43:43 40° E 02:47:02 10° NNE
Cosmos 1242 Rocket 3.6 02:44:54 14° WSW 02:46:29 21° WNW 02:48:47 10° NNW
Meteor 2-5 Rocket 3.9 02:43:05 10° SSW 02:48:59 77° WNW 02:54:59 10° N
SL-4 R/B 3.5 02:47:25 11° SSW 02:50:58 29° SE 02:54:50 10° E
Okean 2 Rocket 3.0 02:49:12 10° N 02:53:37 86° W 02:58:02 10° S
Cosmos 1408 3.6 02:53:36 13° WSW 02:55:32 22° WNW 02:57:59 10° NNW
Cosmos 2074 Rocket 4.1 02:50:01 10° S 02:56:15 90° E 03:02:30 10° N
Cosmos 1674 Rocket 3.7 02:53:19 10° S 02:57:45 83° E 03:02:13 10° N
Cosmos 1570 Rocket 4.0 02:54:23 10° NNW 02:59:42 82° WSW 03:05:02 10° SSE
ADEOS II 2.5 02:54:48 10° N 02:59:51 50° WNW 03:04:54 10° SW
Lacrosse 5 rocket 2.7 02:59:43 10° W 03:02:21 17° SW 03:04:54 10° SSW
Cosmos 2208 Rocket 4.2 02:57:32 10° NNW 03:02:52 83° ENE 03:08:06 10° SSE
Cosmos 1833 4.3 02:58:21 10° SSW 03:04:01 75° WNW 03:09:42 10° NNE
IDEFIX/ARIANE 42P 4.0 03:00:11 10° N 03:04:26 26° WNW 03:08:40 10° WSW
ALOS 2.3 03:00:40 10° N 03:05:17 68° WNW 03:09:51 10° SSW
Cosmos 405 Rocket 2.6 03:09:20 10° NNW 03:12:52 59° W 03:16:27 10° S
Cosmos 2184 Rocket 4.1 03:08:15 10° SSW 03:14:27 71° W 03:20:46 10° N
Cosmos 1378 Rocket 3.7 03:10:47 10° SSW 03:14:59 56° WNW 03:19:14 10° N
CZ-2C R/B 3.1 03:13:01 10° NNE 03:17:44 54° E 03:22:17 10° S
Envisat 3.2 03:13:08 10° NNE 03:18:14 78° ESE 03:23:18 10° S
Okean 1 Rocket 3.0 03:15:51 10° NNW 03:20:11 73° W 03:24:29 10° S
SJ 16-02 2.4 03:17:05 10° WSW 03:20:56 31° WNW 03:24:50 10° N
Nadezhda 3 Rocket 4.1 03:16:51 10° NNW 03:23:13 72° W 03:29:29 10° S
